Time,TemperatureF,DewpointF,PressureIn,WindDirection,WindDirectionDegrees,WindSpeedMPH,WindSpeedGustMPH,Humidity,HourlyPrecipIn,Conditions,Clouds,dailyrainin,SolarRadiationWatts/m^2,SoftwareType,DateUTC
2013-03-14 00:00:00,49.9,46.2,30.09,SSW,193,4.0,7.0,87,0.00,,---,0.00,0.00,VWS V14.01,2013-03-14 07:00:00,
2013-03-14 00:05:00,49.9,46.2,30.09,SSW,192,7.0,7.0,87,0.00,,---,0.00,0.00,VWS V14.01,2013-03-14 07:05:00,
2013-03-14 00:10:00,49.9,46.2,30.09,SSW,203,2.0,9.0,87,0.00,,---,0.00,0.00,VWS V14.01,2013-03-14 07:10:00,
2013-03-14 00:15:00,49.9,45.9,30.09,SSW,192,7.0,9.0,86,0.00,,---,0.00,0.00,VWS V14.01,2013-03-14 07:15:00,
2013-03-14 00:20:00,50.0,46.0,30.09,SSW,192,5.0,9.0,86,0.00,,---,0.00,0.00,VWS V14.01,2013-03-14 07:20:00,
2013-03-14 00:25:00,50.0,46.0,30.08,SSW,206,5.0,9.0,86,0.00,,---,0.00,0.00,VWS V14.01,2013-03-14 07:25:00,
2013-03-14 00:30:00,50.0,46.0,30.09,SSW,210,5.0,9.0,86,0.00,,---,0.00,0.00,VWS V14.01,2013-03-14 07:30:00,
2013-03-14 00:35:00,50.1,45.8,30.09,SSW,210,2.0,9.0,85,0.00,,---,0.00,0.00,VWS V14.01,2013-03-14 07:35:00,
2013-03-14 00:40:00,50.1,45.8,30.09,SSW,210,4.0,9.0,85,0.00,,---,0.00,0.00,VWS V14.01,2013-03-14 07:40:00,
2013-03-14 00:45:00,50.2,45.6,30.09,SSW,210,4.0,9.0,84,0.00,,---,0.00,0.00,VWS V14.01,2013-03-14 07:45:00,
2013-03-14 00:50:00,50.2,45.9,30.09,SSW,206,3.0,9.0,85,0.00,,---,0.00,0.00,VWS V14.01,2013-03-14 07:50:00,
2013-03-14 00:55:00,50.3,45.7,30.09,SSW,210,2.0,9.0,84,0.00,,---,0.00,0.00,VWS V14.01,2013-03-14 07:55:00,
2013-03-14 01:00:00,50.3,45.7,30.08,SSW,210,5.0,6.0,84,0.00,,---,0.00,0.00,VWS V14.01,2013-03-14 08:00:00,
2013-03-14 01:05:00,50.4,45.8,30.08,SSW,210,4.0,7.0,84,0.00,,---,0.00,0.00,VWS V14.01,2013-03-14 08:05:00,
2013-03-14 01:10:00,50.4,45.4,30.08,SSW,210,0.0,7.0,83,0.00,,---,0.00,0.00,VWS V14.01,2013-03-14 08:10:00,
2013-03-14 01:15:00,50.3,45.7,30.08,SSW,210,1.0,7.0,84,0.00,,---,0.00,0.00,VWS V14.01,2013-03-14 08:15:00,
2013-03-14 01:20:00,50.3,45.7,30.08,SSW,208,6.0,7.0,84,0.00,,---,0.00,0.00,VWS V14.01,2013-03-14 08:20:00,
2013-03-14 01:25:00,50.2,45.6,30.08,SSW,204,6.0,8.0,84,0.00,,---,0.00,0.00,VWS V14.01,2013-03-14 08:25:00,
2013-03-14 01:30:00,50.1,45.5,30.07,SSW,202,4.0,8.0,84,0.00,,---,0.00,0.00,VWS V14.01,2013-03-14 08:30:00,
2013-03-14 01:35:00,50.1,45.5,30.07,SSW,202,4.0,8.0,84,0.00,,---,0.00,0.00,VWS V14.01,2013-03-14 08:35:00,
2013-03-14 01:40:00,50.1,45.5,30.07,SSW,202,4.0,8.0,84,0.00,,---,0.00,0.00,VWS V14.01,2013-03-14 08:40:00,
2013-03-14 01:45:00,50.1,45.5,30.07,SSW,202,2.0,8.0,84,0.00,,---,0.00,0.00,VWS V14.01,2013-03-14 08:45:00,
2013-03-14 01:50:00,50.1,45.5,30.07,SSW,202,4.0,8.0,84,0.00,,---,0.00,0.00,VWS V14.01,2013-03-14 08:50:00,
2013-03-14 01:55:00,50.1,45.5,30.07,SSW,202,5.0,8.0,84,0.00,,---,0.00,0.00,VWS V14.01,2013-03-14 08:55:00,
2013-03-14 02:00:00,50.1,45.5,30.07,SSW,200,4.0,8.0,84,0.00,,---,0.00,0.00,VWS V14.01,2013-03-14 09:00:00,
2013-03-14 02:05:00,50.1,45.5,30.07,SSW,200,1.0,8.0,84,0.00,,---,0.00,0.00,VWS V14.01,2013-03-14 09:05:00,
2013-03-14 02:10:00,50.1,45.5,30.07,SSW,200,4.0,8.0,84,0.00,,---,0.00,0.00,VWS V14.01,2013-03-14 09:10:00,
2013-03-14 02:15:00,50.0,45.4,30.06,SSW,200,2.0,8.0,84,0.00,,---,0.00,0.00,VWS V14.01,2013-03-14 09:15:00,
2013-03-14 02:20:00,50.0,45.4,30.06,SSW,200,1.0,8.0,84,0.00,,---,0.00,0.00,VWS V14.01,2013-03-14 09:20:00,
2013-03-14 02:25:00,50.0,45.4,30.06,SSW,200,1.0,8.0,84,0.00,,---,0.00,0.00,VWS V14.01,2013-03-14 09:25:00,
2013-03-14 02:30:00,50.0,45.4,30.07,SSW,200,1.0,6.0,84,0.00,,---,0.00,0.00,VWS V14.01,2013-03-14 09:30:00,
2013-03-14 02:35:00,50.1,45.5,30.06,SSW,196,4.0,7.0,84,0.00,,---,0.00,0.00,VWS V14.01,2013-03-14 09:35:00,
2013-03-14 02:40:00,50.2,45.6,30.06,SSW,196,4.0,7.0,84,0.00,,---,0.00,0.00,VWS V14.01,2013-03-14 09:40:00,
2013-03-14 02:45:00,50.3,45.7,30.06,SSW,204,5.0,9.0,84,0.00,,---,0.00,0.00,VWS V14.01,2013-03-14 09:45:00,
2013-03-14 02:50:00,50.5,45.8,30.06,SSW,193,4.0,10.0,84,0.00,,---,0.00,0.00,VWS V14.01,2013-03-14 09:50:00,
2013-03-14 02:55:00,50.6,45.6,30.07,SSW,204,4.0,11.0,83,0.00,,---,0.00,0.00,VWS V14.01,2013-03-14 09:55:00,
2013-03-14 03:00:00,50.6,45.3,30.07,SSW,195,8.0,11.0,82,0.00,,---,0.00,0.00,VWS V14.01,2013-03-14 10:00:00,
2013-03-14 03:05:00,50.7,45.4,30.07,SSW,209,7.0,11.0,82,0.00,,---,0.00,0.00,VWS V14.01,2013-03-14 10:05:00,
2013-03-14 03:10:00,50.7,45.4,30.06,SSW,201,9.0,11.0,82,0.00,,---,0.00,0.00,VWS V14.01,2013-03-14 10:10:00,
2013-03-14 03:15:00,50.6,45.6,30.06,SSW,207,5.0,11.0,83,0.00,,---,0.00,0.00,VWS V14.01,2013-03-14 10:15:00,
2013-03-14 03:20:00,50.5,45.5,30.05,SSW,204,5.0,11.0,83,0.00,,---,0.00,0.00,VWS V14.01,2013-03-14 10:20:00,
2013-03-14 03:25:00,50.5,45.5,30.05,SSW,207,6.0,13.0,83,0.00,,---,0.00,0.00,VWS V14.01,2013-03-14 10:25:00,
2013-03-14 03:30:00,50.4,45.4,30.05,SSW,198,8.0,10.0,83,0.00,,---,0.00,0.00,VWS V14.01,2013-03-14 10:30:00,
2013-03-14 03:35:00,50.4,45.4,30.05,SSW,198,8.0,10.0,83,0.00,,---,0.00,0.00,VWS V14.01,2013-03-14 10:35:00,
2013-03-14 03:40:00,50.3,45.3,30.05,SSW,198,2.0,12.0,83,0.00,,---,0.00,0.00,VWS V14.01,2013-03-14 10:40:00,
2013-03-14 03:44:00,50.4,45.4,30.05,SSW,204,10.0,12.0,83,0.00,,---,0.00,0.00,VWS V14.01,2013-03-14 10:44:00,
2013-03-14 03:50:00,50.5,45.5,30.05,SSW,205,6.0,12.0,83,0.00,,---,0.00,0.00,VWS V14.01,2013-03-14 10:50:00,
2013-03-14 03:55:00,50.6,45.6,30.04,SSW,206,5.0,12.0,83,0.00,,---,0.00,0.00,VWS V14.01,2013-03-14 10:55:00,
2013-03-14 04:00:00,50.6,45.3,30.04,SSW,200,6.0,10.0,82,0.00,,---,0.00,0.00,VWS V14.01,2013-03-14 11:00:00,
2013-03-14 04:04:00,50.6,45.6,30.05,SSW,198,9.0,13.0,83,0.00,,---,0.00,0.00,VWS V14.01,2013-03-14 11:04:00,
2013-03-14 04:10:00,50.6,45.6,30.05,SSW,202,8.0,13.0,83,0.00,,---,0.00,0.00,VWS V14.01,2013-03-14 11:10:00,
2013-03-14 04:14:00,50.6,45.6,30.05,SW,233,4.0,13.0,83,0.00,,---,0.00,0.00,VWS V14.01,2013-03-14 11:14:00,
2013-03-14 04:19:00,50.5,45.5,30.05,SSW,208,7.0,13.0,83,0.00,,---,0.00,0.00,VWS V14.01,2013-03-14 11:19:00,
2013-03-14 04:24:00,50.4,45.4,30.05,SW,216,5.0,13.0,83,0.00,,---,0.00,0.00,VWS V14.01,2013-03-14 11:24:00,
2013-03-14 04:29:00,50.3,45.3,30.05,SSW,212,7.0,10.0,83,0.00,,---,0.00,0.00,VWS V14.01,2013-03-14 11:29:00,
2013-03-14 04:30:00,50.3,45.3,30.05,SSW,210,6.0,13.0,83,0.00,,---,0.00,0.00,VWS V14.01,2013-03-14 11:30:00,
2013-03-14 04:34:00,50.2,45.2,30.05,SSW,212,5.0,11.0,83,0.00,,---,0.00,0.00,VWS V14.01,2013-03-14 11:34:00,
2013-03-14 04:39:00,50.2,45.2,30.04,SSW,198,11.0,11.0,83,0.00,,---,0.00,0.00,VWS V14.01,2013-03-14 11:39:00,
2013-03-14 04:44:00,50.2,44.9,30.03,SW,214,8.0,12.0,82,0.00,,---,0.00,0.00,VWS V14.01,2013-03-14 11:44:00,
2013-03-14 04:49:00,50.3,45.0,30.03,SSW,199,6.0,12.0,82,0.00,,---,0.00,0.00,VWS V14.01,2013-03-14 11:49:00,
2013-03-14 04:54:00,50.2,44.9,30.02,SSW,212,5.0,12.0,82,0.00,,---,0.00,0.00,VWS V14.01,2013-03-14 11:54:00,
2013-03-14 04:59:00,50.2,44.9,30.03,SSW,202,8.0,9.0,82,0.00,,---,0.00,0.00,VWS V14.01,2013-03-14 11:59:00,
2013-03-14 05:00:00,50.2,44.9,30.02,SSW,206,10.0,12.0,82,0.00,,---,0.00,0.00,VWS V14.01,2013-03-14 12:00:00,
2013-03-14 05:04:00,50.1,45.2,30.03,SSW,205,5.0,11.0,83,0.00,,---,0.00,0.00,VWS V14.01,2013-03-14 12:04:00,
2013-03-14 05:09:00,50.1,45.2,30.03,SSW,212,7.0,13.0,83,0.00,,---,0.00,0.00,VWS V14.01,2013-03-14 12:09:00,
2013-03-14 05:14:00,50.1,45.2,30.03,SSW,201,4.0,15.0,83,0.00,,---,0.00,0.00,VWS V14.01,2013-03-14 12:14:00,
2013-03-14 05:19:00,50.1,45.2,30.03,SW,216,1.0,15.0,83,0.00,,---,0.00,0.00,VWS V14.01,2013-03-14 12:19:00,
2013-03-14 05:24:00,50.0,45.0,30.03,SSW,204,4.0,15.0,83,0.00,,---,0.00,0.00,VWS V14.01,2013-03-14 12:24:00,
2013-03-14 05:29:00,49.9,45.3,30.04,SSW,213,3.0,8.0,84,0.00,,---,0.00,0.00,VWS V14.01,2013-03-14 12:29:00,
2013-03-14 05:30:00,50.0,45.4,30.03,SW,215,7.0,15.0,84,0.00,,---,0.00,0.00,VWS V14.01,2013-03-14 12:30:00,
2013-03-14 05:34:00,49.9,45.3,30.03,SW,214,5.0,10.0,84,0.00,,---,0.00,0.00,VWS V14.01,2013-03-14 12:34:00,
2013-03-14 05:39:00,49.8,45.2,30.04,SW,232,3.0,10.0,84,0.00,,---,0.00,0.00,VWS V14.01,2013-03-14 12:39:00,
2013-03-14 05:44:00,49.8,45.2,30.04,SW,231,8.0,10.0,84,0.00,,---,0.00,0.00,VWS V14.01,2013-03-14 12:44:00,
2013-03-14 05:49:00,49.7,45.1,30.05,WSW,254,6.0,10.0,84,0.00,,---,0.00,0.00,VWS V14.01,2013-03-14 12:49:00,
2013-03-14 05:54:00,49.7,45.1,30.05,SW,235,9.0,11.0,84,0.00,,---,0.00,0.00,VWS V14.01,2013-03-14 12:54:00,
2013-03-14 05:59:00,49.7,45.1,30.05,WSW,247,5.0,12.0,84,0.00,,---,0.00,0.00,VWS V14.01,2013-03-14 12:59:00,
2013-03-14 06:00:00,49.7,45.1,30.05,WSW,251,8.0,11.0,84,0.00,,---,0.00,0.00,VWS V14.01,2013-03-14 13:00:00,
2013-03-14 06:04:00,49.7,45.1,30.04,SW,235,6.0,12.0,84,0.00,,---,0.00,0.00,VWS V14.01,2013-03-14 13:04:00,
2013-03-14 06:09:00,49.7,44.8,30.03,SW,218,6.0,12.0,83,0.00,,---,0.00,0.00,VWS V14.01,2013-03-14 13:09:00,
2013-03-14 06:14:00,49.7,44.8,30.02,SW,220,5.0,12.0,83,0.00,,---,0.00,0.00,VWS V14.01,2013-03-14 13:14:00,
2013-03-14 06:19:00,49.7,44.4,30.03,SW,228,6.0,12.0,82,0.00,,---,0.00,0.00,VWS V14.01,2013-03-14 13:19:00,
2013-03-14 06:24:00,49.7,44.4,30.03,SW,229,4.0,12.0,82,0.00,,---,0.00,0.00,VWS V14.01,2013-03-14 13:24:00,
2013-03-14 06:29:00,49.7,44.4,30.02,SSW,201,5.0,8.0,82,0.00,,---,0.00,0.00,VWS V14.01,2013-03-14 13:29:00,
2013-03-14 06:30:00,49.7,44.4,30.03,SSW,199,5.0,12.0,82,0.00,,---,0.00,0.00,VWS V14.01,2013-03-14 13:30:00,
2013-03-14 06:34:00,49.8,44.5,30.03,SSW,196,8.0,9.0,82,0.00,,---,0.00,0.00,VWS V14.01,2013-03-14 13:34:00,
2013-03-14 06:39:00,49.8,44.5,30.04,SSW,208,7.0,9.0,82,0.00,,---,0.00,0.00,VWS V14.01,2013-03-14 13:39:00,
2013-03-14 06:44:00,49.8,44.5,30.04,SSW,205,5.0,9.0,82,0.00,,---,0.00,0.00,VWS V14.01,2013-03-14 13:44:00,
2013-03-14 06:49:00,49.8,44.2,30.04,SW,216,4.0,10.0,81,0.00,,---,0.00,0.00,VWS V14.01,2013-03-14 13:49:00,
2013-03-14 06:54:00,49.8,44.5,30.05,SW,222,6.0,10.0,82,0.00,,---,0.00,0.00,VWS V14.01,2013-03-14 13:54:00,
2013-03-14 06:59:00,49.8,44.2,30.05,SSW,198,2.0,10.0,81,0.00,,---,0.00,0.00,VWS V14.01,2013-03-14 13:59:00,
2013-03-14 07:00:00,49.8,44.2,30.05,SW,229,7.0,13.0,81,0.00,,---,0.00,0.00,VWS V14.01,2013-03-14 14:00:00,
2013-03-14 07:04:00,49.9,44.3,30.04,SSW,208,4.0,10.0,81,0.00,,---,0.00,0.00,VWS V14.01,2013-03-14 14:04:00,
2013-03-14 07:09:00,49.8,44.2,30.04,SW,216,6.0,11.0,81,0.00,,---,0.00,0.00,VWS V14.01,2013-03-14 14:09:00,
2013-03-14 07:14:00,49.8,44.2,30.04,SSW,205,7.0,12.0,81,0.00,,---,0.00,0.00,VWS V14.01,2013-03-14 14:14:00,
2013-03-14 07:19:00,49.8,44.2,30.03,SSW,208,6.0,12.0,81,0.00,,---,0.00,0.00,VWS V14.01,2013-03-14 14:19:00,
2013-03-14 07:24:00,49.7,44.1,30.04,SSW,204,6.0,12.0,81,0.00,,---,0.00,0.00,VWS V14.01,2013-03-14 14:24:00,
2013-03-14 07:29:00,49.7,44.1,30.04,SSW,201,7.0,11.0,81,0.00,,---,0.00,0.00,VWS V14.01,2013-03-14 14:29:00,
2013-03-14 07:30:00,49.7,44.1,30.04,SSW,206,8.0,12.0,81,0.00,,---,0.00,0.00,VWS V14.01,2013-03-14 14:30:00,
2013-03-14 07:34:00,49.8,44.2,30.04,SW,217,6.0,12.0,81,0.00,,---,0.00,0.00,VWS V14.01,2013-03-14 14:34:00,
2013-03-14 07:39:00,49.8,44.2,30.04,SSW,207,7.0,13.0,81,0.00,,---,0.00,0.00,VWS V14.01,2013-03-14 14:39:00,
2013-03-14 07:44:00,49.9,44.0,30.04,SW,216,6.0,13.0,80,0.00,,---,0.00,5.00,VWS V14.01,2013-03-14 14:44:00,
2013-03-14 07:49:00,50.0,44.1,30.04,SW,220,8.0,13.0,80,0.00,,---,0.00,7.00,VWS V14.01,2013-03-14 14:49:00,
2013-03-14 07:54:00,50.1,44.2,30.05,SSW,212,6.0,13.0,80,0.00,,---,0.00,9.00,VWS V14.01,2013-03-14 14:54:00,
2013-03-14 07:59:00,50.1,44.2,30.05,SW,227,4.0,9.0,80,0.00,,---,0.00,11.00,VWS V14.01,2013-03-14 14:59:00,
2013-03-14 08:00:00,50.1,44.2,30.05,SW,214,7.0,13.0,80,0.00,,---,0.00,11.00,VWS V14.01,2013-03-14 15:00:00,
2013-03-14 08:04:00,50.0,44.1,30.05,SSW,212,8.0,12.0,80,0.00,,---,0.00,14.00,VWS V14.01,2013-03-14 15:04:00,
2013-03-14 08:09:00,50.0,43.8,30.05,SSW,210,7.0,12.0,79,0.00,,---,0.00,14.00,VWS V14.01,2013-03-14 15:09:00,
2013-03-14 08:14:00,50.1,44.2,30.06,SSW,212,6.0,14.0,80,0.00,,---,0.00,16.00,VWS V14.01,2013-03-14 15:14:00,
2013-03-14 08:19:00,50.1,44.2,30.06,SW,214,7.0,14.0,80,0.00,,---,0.00,21.00,VWS V14.01,2013-03-14 15:19:00,
2013-03-14 08:24:00,50.1,44.2,30.06,SSW,211,10.0,14.0,80,0.00,,---,0.00,32.00,VWS V14.01,2013-03-14 15:24:00,
2013-03-14 08:29:00,50.1,44.5,30.06,SSW,213,7.0,12.0,81,0.00,,---,0.00,28.00,VWS V14.01,2013-03-14 15:29:00,
2013-03-14 08:30:00,50.1,44.5,30.06,SW,214,5.0,14.0,81,0.00,,---,0.00,32.00,VWS V14.01,2013-03-14 15:30:00,
2013-03-14 08:34:00,50.1,44.5,30.06,SW,223,7.0,16.0,81,0.00,,---,0.00,18.00,VWS V14.01,2013-03-14 15:34:00,
2013-03-14 08:39:00,50.1,44.2,30.06,SSW,210,13.0,16.0,80,0.00,,---,0.00,12.00,VWS V14.01,2013-03-14 15:39:00,
2013-03-14 08:44:00,50.1,44.5,30.06,SW,230,4.0,16.0,81,0.00,,---,0.00,16.00,VWS V14.01,2013-03-14 15:44:00,
2013-03-14 08:49:00,50.1,44.5,30.06,SSW,209,4.0,16.0,81,0.00,,---,0.00,18.00,VWS V14.01,2013-03-14 15:49:00,
2013-03-14 08:54:00,50.1,44.5,30.06,SSW,213,7.0,16.0,81,0.00,,---,0.00,16.00,VWS V14.01,2013-03-14 15:54:00,
2013-03-14 08:59:00,50.0,44.7,30.06,SW,217,6.0,9.0,82,0.00,,---,0.00,14.00,VWS V14.01,2013-03-14 15:59:00,
2013-03-14 09:00:00,50.1,44.8,30.06,SW,219,7.0,16.0,82,0.00,,---,0.00,14.00,VWS V14.01,2013-03-14 16:00:00,
2013-03-14 09:04:00,49.9,44.6,30.06,SW,235,2.0,10.0,82,0.00,,---,0.00,14.00,VWS V14.01,2013-03-14 16:04:00,
2013-03-14 09:09:00,49.9,44.6,30.06,SW,220,6.0,10.0,82,0.00,,---,0.00,14.00,VWS V14.01,2013-03-14 16:09:00,
2013-03-14 09:14:00,49.8,44.5,30.07,SW,219,3.0,10.0,82,0.00,,---,0.00,19.00,VWS V14.01,2013-03-14 16:14:00,
2013-03-14 09:19:00,49.8,44.8,30.07,SW,224,5.0,10.0,83,0.00,,---,0.00,25.00,VWS V14.01,2013-03-14 16:19:00,
2013-03-14 09:24:00,49.7,44.8,30.07,SW,231,2.0,10.0,83,0.00,,---,0.00,26.00,VWS V14.01,2013-03-14 16:24:00,
2013-03-14 09:29:00,49.7,44.8,30.07,SW,231,5.0,9.0,83,0.00,,---,0.00,26.00,VWS V14.01,2013-03-14 16:29:00,
2013-03-14 09:30:00,49.7,44.8,30.07,SW,231,9.0,10.0,83,0.00,,---,0.00,26.00,VWS V14.01,2013-03-14 16:30:00,
2013-03-14 09:34:00,49.7,44.8,30.08,SW,231,5.0,9.0,83,0.00,,---,0.00,28.00,VWS V14.01,2013-03-14 16:34:00,
2013-03-14 09:39:00,49.7,44.8,30.08,SW,220,1.0,9.0,83,0.00,,---,0.00,25.00,VWS V14.01,2013-03-14 16:39:00,
2013-03-14 09:44:00,49.6,44.7,30.08,WSW,242,4.0,11.0,83,0.00,,---,0.00,28.00,VWS V14.01,2013-03-14 16:44:00,
2013-03-14 09:49:00,49.5,44.6,30.08,WSW,239,3.0,11.0,83,0.00,,---,0.00,37.00,VWS V14.01,2013-03-14 16:49:00,
2013-03-14 09:54:00,49.5,44.6,30.08,SSW,210,4.0,11.0,83,0.00,,---,0.00,33.00,VWS V14.01,2013-03-14 16:54:00,
2013-03-14 09:59:00,49.4,44.1,30.08,SW,218,3.0,11.0,82,0.00,,---,0.00,42.00,VWS V14.01,2013-03-14 16:59:00,
2013-03-14 10:00:00,49.5,44.6,30.08,SW,225,8.0,11.0,83,0.00,,---,0.00,35.00,VWS V14.01,2013-03-14 17:00:00,
2013-03-14 10:04:00,49.4,44.1,30.08,WSW,247,9.0,11.0,82,0.00,,---,0.00,58.00,VWS V14.01,2013-03-14 17:04:00,
2013-03-14 10:09:00,49.4,44.1,30.08,SW,223,6.0,11.0,82,0.00,,---,0.00,51.00,VWS V14.01,2013-03-14 17:09:00,
2013-03-14 10:14:00,49.4,44.5,30.08,WSW,249,10.0,11.0,83,0.00,,---,0.00,46.00,VWS V14.01,2013-03-14 17:14:00,
2013-03-14 10:19:00,49.5,44.2,30.08,SW,226,2.0,11.0,82,0.00,,---,0.00,39.00,VWS V14.01,2013-03-14 17:19:00,
2013-03-14 10:24:00,49.5,44.2,30.07,SW,219,8.0,11.0,82,0.00,,---,0.00,47.00,VWS V14.01,2013-03-14 17:24:00,
2013-03-14 10:29:00,49.5,44.2,30.08,SW,232,5.0,9.0,82,0.00,,---,0.00,33.00,VWS V14.01,2013-03-14 17:29:00,
2013-03-14 10:30:00,49.5,44.2,30.08,WSW,237,4.0,11.0,82,0.00,,---,0.00,35.00,VWS V14.01,2013-03-14 17:30:00,
2013-03-14 10:34:00,49.5,44.2,30.08,SW,225,3.0,10.0,82,0.00,,---,0.00,51.00,VWS V14.01,2013-03-14 17:34:00,
2013-03-14 10:39:00,49.5,44.2,30.08,WSW,256,4.0,11.0,82,0.00,,---,0.00,33.00,VWS V14.01,2013-03-14 17:39:00,
2013-03-14 10:44:00,49.4,43.8,30.08,SW,227,5.0,11.0,81,0.00,,---,0.00,35.00,VWS V14.01,2013-03-14 17:44:00,
2013-03-14 10:49:00,49.4,43.8,30.08,SW,220,4.0,11.0,81,0.00,,---,0.00,33.00,VWS V14.01,2013-03-14 17:49:00,
2013-03-14 10:54:00,49.4,43.8,30.08,SW,219,11.0,11.0,81,0.00,,---,0.00,28.00,VWS V14.01,2013-03-14 17:54:00,
2013-03-14 10:59:00,49.4,43.8,30.08,SW,214,2.0,10.0,81,0.00,,---,0.00,35.00,VWS V14.01,2013-03-14 17:59:00,
2013-03-14 11:00:00,49.4,43.8,30.08,SSW,212,6.0,11.0,81,0.00,,---,0.00,40.00,VWS V14.01,2013-03-14 18:00:00,
2013-03-14 11:04:00,49.4,43.8,30.07,WSW,243,7.0,10.0,81,0.00,,---,0.00,37.00,VWS V14.01,2013-03-14 18:04:00,
2013-03-14 11:09:00,49.4,43.8,30.07,SW,217,5.0,11.0,81,0.00,,---,0.00,47.00,VWS V14.01,2013-03-14 18:09:00,
2013-03-14 11:14:00,49.5,43.9,30.07,SSW,211,2.0,11.0,81,0.00,,---,0.00,58.00,VWS V14.01,2013-03-14 18:14:00,
2013-03-14 11:19:00,49.5,43.9,30.08,SW,216,7.0,11.0,81,0.00,,---,0.00,58.00,VWS V14.01,2013-03-14 18:19:00,
2013-03-14 11:24:00,49.6,44.0,30.07,SW,218,6.0,11.0,81,0.00,,---,0.00,86.00,VWS V14.01,2013-03-14 18:24:00,
2013-03-14 11:29:00,49.7,43.8,30.07,SSW,213,5.0,10.0,80,0.00,,---,0.00,70.00,VWS V14.01,2013-03-14 18:29:00,
2013-03-14 11:30:00,49.6,43.7,30.07,SSW,212,6.0,13.0,80,0.00,,---,0.00,86.00,VWS V14.01,2013-03-14 18:30:00,
2013-03-14 11:34:00,49.8,43.9,30.08,SW,214,7.0,10.0,80,0.00,,---,0.00,72.00,VWS V14.01,2013-03-14 18:34:00,
2013-03-14 11:39:00,49.9,44.0,30.07,SSW,196,4.0,11.0,80,0.00,,---,0.00,111.00,VWS V14.01,2013-03-14 18:39:00,
2013-03-14 11:44:00,50.1,44.2,30.07,SSW,209,7.0,11.0,80,0.00,,---,0.00,109.00,VWS V14.01,2013-03-14 18:44:00,
2013-03-14 11:49:00,50.3,44.4,30.07,SSW,193,9.0,11.0,80,0.00,,---,0.00,95.00,VWS V14.01,2013-03-14 18:49:00,
2013-03-14 11:54:00,50.4,44.5,30.07,SSW,212,9.0,12.0,80,0.00,,---,0.00,93.00,VWS V14.01,2013-03-14 18:54:00,
2013-03-14 11:59:00,50.5,44.2,30.07,SSW,204,7.0,9.0,79,0.00,,---,0.00,98.00,VWS V14.01,2013-03-14 18:59:00,
2013-03-14 12:00:00,50.5,44.6,30.08,SW,233,9.0,12.0,80,0.00,,---,0.00,76.00,VWS V14.01,2013-03-14 19:00:00,
2013-03-14 12:04:00,50.5,44.6,30.07,SW,216,7.0,10.0,80,0.00,,---,0.00,90.00,VWS V14.01,2013-03-14 19:04:00,
2013-03-14 12:09:00,50.6,44.7,30.07,SSW,212,5.0,11.0,80,0.00,,---,0.00,97.00,VWS V14.01,2013-03-14 19:09:00,
2013-03-14 12:14:00,50.6,44.3,30.07,SW,218,5.0,11.0,79,0.00,,---,0.00,83.00,VWS V14.01,2013-03-14 19:14:00,
2013-03-14 12:19:00,50.7,44.4,30.07,SW,221,4.0,11.0,79,0.00,,---,0.00,70.00,VWS V14.01,2013-03-14 19:19:00,
2013-03-14 12:24:00,50.7,44.4,30.08,SSW,212,7.0,11.0,79,0.00,,---,0.00,84.00,VWS V14.01,2013-03-14 19:24:00,
2013-03-14 12:29:00,50.6,44.0,30.07,SW,223,6.0,11.0,78,0.00,,---,0.00,83.00,VWS V14.01,2013-03-14 19:29:00,
2013-03-14 12:30:00,50.7,44.4,30.08,SSW,212,3.0,11.0,79,0.00,,---,0.00,90.00,VWS V14.01,2013-03-14 19:30:00,
2013-03-14 12:34:00,50.7,44.4,30.07,SW,223,5.0,11.0,79,0.00,,---,0.00,81.00,VWS V14.01,2013-03-14 19:34:00,
2013-03-14 12:39:00,50.8,44.2,30.07,WSW,242,5.0,11.0,78,0.00,,---,0.00,93.00,VWS V14.01,2013-03-14 19:39:00,
2013-03-14 12:44:00,50.8,44.5,30.07,SW,220,6.0,11.0,79,0.00,,---,0.00,107.00,VWS V14.01,2013-03-14 19:44:00,
2013-03-14 12:49:00,51.0,44.7,30.07,SSW,208,2.0,11.0,79,0.00,,---,0.00,128.00,VWS V14.01,2013-03-14 19:49:00,
2013-03-14 12:54:00,51.1,44.8,30.07,SSW,206,5.0,12.0,79,0.00,,---,0.00,91.00,VWS V14.01,2013-03-14 19:54:00,
2013-03-14 12:59:00,51.2,44.9,30.08,SSW,213,1.0,9.0,79,0.00,,---,0.00,107.00,VWS V14.01,2013-03-14 19:59:00,
2013-03-14 13:00:00,51.1,44.8,30.07,SW,219,5.0,12.0,79,0.00,,---,0.00,100.00,VWS V14.01,2013-03-14 20:00:00,
2013-03-14 13:04:00,51.3,45.0,30.07,SSW,203,8.0,9.0,79,0.00,,---,0.00,120.00,VWS V14.01,2013-03-14 20:04:00,
2013-03-14 13:09:00,51.3,44.7,30.07,SSW,202,6.0,12.0,78,0.00,,---,0.00,118.00,VWS V14.01,2013-03-14 20:09:00,
2013-03-14 13:14:00,51.3,44.7,30.06,SSW,200,5.0,12.0,78,0.00,,---,0.00,102.00,VWS V14.01,2013-03-14 20:14:00,
2013-03-14 13:19:00,51.2,44.9,30.06,SSW,193,5.0,12.0,79,0.00,,---,0.00,79.00,VWS V14.01,2013-03-14 20:19:00,
2013-03-14 13:24:00,51.3,45.0,30.06,SSW,212,5.0,12.0,79,0.00,,---,0.00,70.00,VWS V14.01,2013-03-14 20:24:00,
2013-03-14 13:29:00,51.3,45.0,30.06,South,187,7.0,10.0,79,0.00,,---,0.00,60.00,VWS V14.01,2013-03-14 20:29:00,
2013-03-14 13:30:00,51.3,45.0,30.06,SSW,206,7.0,12.0,79,0.00,,---,0.00,60.00,VWS V14.01,2013-03-14 20:30:00,
2013-03-14 13:34:00,51.3,45.3,30.06,South,187,0.0,10.0,80,0.00,,---,0.00,60.00,VWS V14.01,2013-03-14 20:34:00,
2013-03-14 13:39:00,51.3,45.7,30.06,South,187,5.0,10.0,81,0.00,,---,0.00,60.00,VWS V14.01,2013-03-14 20:39:00,
2013-03-14 13:44:00,51.2,45.6,30.06,SW,233,2.0,10.0,81,0.00,,---,0.00,33.00,VWS V14.01,2013-03-14 20:44:00,
2013-03-14 13:49:00,51.2,45.6,30.06,WSW,243,5.0,10.0,81,0.00,,---,0.00,25.00,VWS V14.01,2013-03-14 20:49:00,
2013-03-14 13:54:00,51.2,45.6,30.06,WSW,251,7.0,10.0,81,0.00,,---,0.00,23.00,VWS V14.01,2013-03-14 20:54:00,
2013-03-14 13:59:00,51.1,45.8,30.06,WSW,250,5.0,6.0,82,0.00,,---,0.00,53.00,VWS V14.01,2013-03-14 20:59:00,
2013-03-14 14:00:00,51.1,45.5,30.06,WSW,250,1.0,10.0,81,0.00,,---,0.00,37.00,VWS V14.01,2013-03-14 21:00:00,
2013-03-14 14:04:00,51.0,45.7,30.06,WSW,250,6.0,7.0,82,0.00,,---,0.00,40.00,VWS V14.01,2013-03-14 21:04:00,
2013-03-14 14:09:00,50.9,45.6,30.07,West,269,6.0,8.0,82,0.00,,---,0.00,30.00,VWS V14.01,2013-03-14 21:09:00,
2013-03-14 14:14:00,50.7,45.4,30.06,West,269,8.0,9.0,82,0.00,,---,0.00,62.00,VWS V14.01,2013-03-14 21:14:00,
2013-03-14 14:19:00,50.5,45.2,30.06,WSW,252,10.0,10.0,82,0.00,,---,0.00,37.00,VWS V14.01,2013-03-14 21:19:00,
2013-03-14 14:24:00,50.4,45.1,30.05,WSW,258,2.0,12.0,82,0.00,,---,0.00,69.00,VWS V14.01,2013-03-14 21:24:00,
2013-03-14 14:29:00,50.3,45.0,30.06,SW,227,5.0,8.0,82,0.00,,---,0.00,83.00,VWS V14.01,2013-03-14 21:29:00,
2013-03-14 14:30:00,50.3,45.0,30.05,SW,218,7.0,12.0,82,0.00,,---,0.00,77.00,VWS V14.01,2013-03-14 21:30:00,
2013-03-14 14:34:00,50.2,44.9,30.06,SSW,207,6.0,10.0,82,0.00,,---,0.00,76.00,VWS V14.01,2013-03-14 21:34:00,
2013-03-14 14:39:00,50.2,44.9,30.06,SW,218,2.0,10.0,82,0.00,,---,0.00,67.00,VWS V14.01,2013-03-14 21:39:00,
2013-03-14 14:44:00,50.2,45.2,30.06,SW,220,7.0,10.0,83,0.00,,---,0.00,79.00,VWS V14.01,2013-03-14 21:44:00,
2013-03-14 14:49:00,50.3,45.0,30.06,SW,236,6.0,11.0,82,0.00,,---,0.00,60.00,VWS V14.01,2013-03-14 21:49:00,
2013-03-14 14:54:00,50.3,44.7,30.06,SSW,212,4.0,12.0,81,0.00,,---,0.00,98.00,VWS V14.01,2013-03-14 21:54:00,
2013-03-14 14:59:00,50.3,45.0,30.06,SSW,198,4.0,10.0,82,0.00,,---,0.00,102.00,VWS V14.01,2013-03-14 21:59:00,
2013-03-14 15:00:00,50.3,44.7,30.05,WSW,245,4.0,12.0,81,0.00,,---,0.00,90.00,VWS V14.01,2013-03-14 22:00:00,
2013-03-14 15:04:00,50.5,44.9,30.06,SSW,201,6.0,10.0,81,0.00,,---,0.00,104.00,VWS V14.01,2013-03-14 22:04:00,
2013-03-14 15:09:00,50.5,44.6,30.06,SSW,213,5.0,13.0,80,0.00,,---,0.00,72.00,VWS V14.01,2013-03-14 22:09:00,
2013-03-14 15:14:00,50.6,44.7,30.05,SSW,203,1.0,13.0,80,0.00,,---,0.00,114.00,VWS V14.01,2013-03-14 22:14:00,
2013-03-14 15:19:00,50.7,44.4,30.06,SW,230,7.0,13.0,79,0.00,,---,0.00,79.00,VWS V14.01,2013-03-14 22:19:00,
2013-03-14 15:24:00,50.9,44.6,30.06,SSW,213,6.0,13.0,79,0.00,,---,0.00,98.00,VWS V14.01,2013-03-14 22:24:00,
2013-03-14 15:29:00,51.0,44.7,30.05,SW,229,4.0,6.0,79,0.00,,---,0.00,105.00,VWS V14.01,2013-03-14 22:29:00,
2013-03-14 15:30:00,51.0,44.7,30.06,SW,227,5.0,13.0,79,0.00,,---,0.00,104.00,VWS V14.01,2013-03-14 22:30:00,
2013-03-14 15:34:00,51.2,44.9,30.05,West,260,8.0,8.0,79,0.00,,---,0.00,93.00,VWS V14.01,2013-03-14 22:34:00,
2013-03-14 15:39:00,51.3,44.3,30.05,SW,224,5.0,12.0,77,0.00,,---,0.00,79.00,VWS V14.01,2013-03-14 22:39:00,
2013-03-14 15:44:00,51.3,44.0,30.05,WSW,237,9.0,14.0,76,0.00,,---,0.00,74.00,VWS V14.01,2013-03-14 22:44:00,
2013-03-14 15:49:00,51.3,43.7,30.05,SW,226,7.0,15.0,75,0.00,,---,0.00,74.00,VWS V14.01,2013-03-14 22:49:00,
2013-03-14 15:54:00,51.3,43.7,30.06,SW,235,12.0,15.0,75,0.00,,---,0.00,79.00,VWS V14.01,2013-03-14 22:54:00,
2013-03-14 15:59:00,51.3,43.7,30.06,WSW,245,10.0,13.0,75,0.00,,---,0.00,69.00,VWS V14.01,2013-03-14 22:59:00,
2013-03-14 16:00:00,51.3,44.0,30.06,WSW,241,3.0,15.0,76,0.00,,---,0.00,90.00,VWS V14.01,2013-03-14 23:00:00,
2013-03-14 16:04:00,51.3,43.7,30.06,West,279,9.0,16.0,75,0.00,,---,0.00,105.00,VWS V14.01,2013-03-14 23:04:00,
2013-03-14 16:09:00,51.3,43.3,30.06,West,274,10.0,16.0,74,0.00,,---,0.00,118.00,VWS V14.01,2013-03-14 23:09:00,
2013-03-14 16:14:00,51.3,43.3,30.07,WSW,239,9.0,16.0,74,0.00,,---,0.00,120.00,VWS V14.01,2013-03-14 23:14:00,
2013-03-14 16:19:00,51.4,43.0,30.07,West,264,4.0,18.0,73,0.00,,---,0.00,97.00,VWS V14.01,2013-03-14 23:19:00,
2013-03-14 16:24:00,51.4,43.0,30.07,West,264,9.0,19.0,73,0.00,,---,0.00,105.00,VWS V14.01,2013-03-14 23:24:00,
2013-03-14 16:29:00,51.4,42.7,30.07,WNW,293,8.0,16.0,72,0.00,,---,0.00,81.00,VWS V14.01,2013-03-14 23:29:00,
2013-03-14 16:30:00,51.4,42.7,30.07,WSW,243,7.0,19.0,72,0.00,,---,0.00,91.00,VWS V14.01,2013-03-14 23:30:00,
2013-03-14 16:34:00,51.4,42.7,30.07,West,279,6.0,16.0,72,0.00,,---,0.00,77.00,VWS V14.01,2013-03-14 23:34:00,
2013-03-14 16:39:00,51.4,43.0,30.06,WNW,283,10.0,16.0,73,0.00,,---,0.00,91.00,VWS V14.01,2013-03-14 23:39:00,
2013-03-14 16:44:00,51.4,43.0,30.06,WSW,255,10.0,16.0,73,0.00,,---,0.00,118.00,VWS V14.01,2013-03-14 23:44:00,
2013-03-14 16:49:00,51.5,43.1,30.06,WSW,255,8.0,16.0,73,0.00,,---,0.00,98.00,VWS V14.01,2013-03-14 23:49:00,
2013-03-14 16:54:00,51.6,43.2,30.06,West,259,9.0,16.0,73,0.00,,---,0.00,93.00,VWS V14.01,2013-03-14 23:54:00,
2013-03-14 16:59:00,51.6,42.9,30.06,WNW,285,9.0,13.0,72,0.00,,---,0.00,74.00,VWS V14.01,2013-03-14 23:59:00,
2013-03-14 17:00:00,51.6,43.2,30.06,SW,235,13.0,16.0,73,0.00,,---,0.00,83.00,VWS V14.01,2013-03-15 00:00:00,
2013-03-14 17:04:00,51.5,42.8,30.05,WSW,238,10.0,14.0,72,0.00,,---,0.00,62.00,VWS V14.01,2013-03-15 00:04:00,
2013-03-14 17:09:00,51.5,42.8,30.05,West,269,8.0,20.0,72,0.00,,---,0.00,72.00,VWS V14.01,2013-03-15 00:09:00,
2013-03-14 17:14:00,51.3,42.6,30.06,WNW,287,6.0,21.0,72,0.00,,---,0.00,67.00,VWS V14.01,2013-03-15 00:14:00,
2013-03-14 17:19:00,51.2,42.9,30.07,SW,222,10.0,21.0,73,0.00,,---,0.00,40.00,VWS V14.01,2013-03-15 00:19:00,
2013-03-14 17:24:00,51.1,43.1,30.07,WSW,239,7.0,21.0,74,0.00,,---,0.00,25.00,VWS V14.01,2013-03-15 00:24:00,
2013-03-14 17:29:00,50.9,43.6,30.07,SW,231,5.0,11.0,76,0.00,,---,0.00,23.00,VWS V14.01,2013-03-15 00:29:00,
2013-03-14 17:30:00,51.0,43.0,30.07,SW,235,8.0,21.0,74,0.00,,---,0.00,25.00,VWS V14.01,2013-03-15 00:30:00,
2013-03-14 17:34:00,50.8,42.5,30.07,West,259,8.0,15.0,73,0.00,,---,0.00,25.00,VWS V14.01,2013-03-15 00:34:00,
2013-03-14 17:39:00,50.7,42.4,30.06,SW,216,6.0,15.0,73,0.00,,---,0.00,28.00,VWS V14.01,2013-03-15 00:39:00,
2013-03-14 17:44:00,50.7,42.7,30.07,SW,218,9.0,15.0,74,0.00,,---,0.00,32.00,VWS V14.01,2013-03-15 00:44:00,
2013-03-14 17:49:00,50.7,42.7,30.07,WSW,246,8.0,15.0,74,0.00,,---,0.00,28.00,VWS V14.01,2013-03-15 00:49:00,
2013-03-14 17:54:00,50.6,42.6,30.07,WSW,245,11.0,15.0,74,0.00,,---,0.00,30.00,VWS V14.01,2013-03-15 00:54:00,
2013-03-14 17:59:00,50.6,42.6,30.07,SW,235,8.0,13.0,74,0.00,,---,0.00,30.00,VWS V14.01,2013-03-15 00:59:00,
2013-03-14 18:00:00,50.6,42.6,30.07,WSW,239,10.0,15.0,74,0.00,,---,0.00,30.00,VWS V14.01,2013-03-15 01:00:00,
2013-03-14 18:04:00,50.5,42.9,30.08,West,274,5.0,14.0,75,0.00,,---,0.00,19.00,VWS V14.01,2013-03-15 01:04:00,
2013-03-14 18:09:00,50.5,42.9,30.08,WSW,243,8.0,16.0,75,0.00,,---,0.00,16.00,VWS V14.01,2013-03-15 01:09:00,
2013-03-14 18:14:00,50.4,43.1,30.08,West,269,4.0,16.0,76,0.00,,---,0.00,9.00,VWS V14.01,2013-03-15 01:14:00,
2013-03-14 18:19:00,50.3,43.0,30.08,WSW,239,11.0,16.0,76,0.00,,---,0.00,5.00,VWS V14.01,2013-03-15 01:19:00,
2013-03-14 18:24:00,50.2,43.3,30.09,WSW,240,6.0,16.0,77,0.00,,---,0.00,5.00,VWS V14.01,2013-03-15 01:24:00,
2013-03-14 18:29:00,50.0,43.1,30.09,SW,221,4.0,14.0,77,0.00,,---,0.00,0.00,VWS V14.01,2013-03-15 01:29:00,
2013-03-14 18:30:00,50.1,43.2,30.09,WSW,245,13.0,16.0,77,0.00,,---,0.00,0.00,VWS V14.01,2013-03-15 01:30:00,
2013-03-14 18:34:00,49.8,43.2,30.09,WSW,248,7.0,18.0,78,0.00,,---,0.00,0.00,VWS V14.01,2013-03-15 01:34:00,
2013-03-14 18:39:00,49.7,43.5,30.09,WSW,243,11.0,18.0,79,0.00,,---,0.00,7.00,VWS V14.01,2013-03-15 01:39:00,
2013-03-14 18:44:00,49.5,43.6,30.10,SW,235,11.0,18.0,80,0.00,,---,0.00,0.00,VWS V14.01,2013-03-15 01:44:00,
2013-03-14 18:49:00,49.3,43.4,30.09,SW,218,10.0,18.0,80,0.01,,---,0.01,5.00,VWS V14.01,2013-03-15 01:49:00,
2013-03-14 18:54:00,49.2,43.6,30.09,WSW,242,9.0,18.0,81,0.01,,---,0.01,7.00,VWS V14.01,2013-03-15 01:54:00,
2013-03-14 18:59:00,49.0,43.4,30.08,SSW,204,5.0,16.0,81,0.01,,---,0.01,7.00,VWS V14.01,2013-03-15 01:59:00,
2013-03-14 19:00:00,49.1,43.5,30.08,WSW,237,8.0,18.0,81,0.01,,---,0.01,7.00,VWS V14.01,2013-03-15 02:00:00,
2013-03-14 19:04:00,48.9,43.7,30.08,SW,218,6.0,16.0,82,0.01,,---,0.01,14.00,VWS V14.01,2013-03-15 02:04:00,
2013-03-14 19:09:00,48.8,43.6,30.08,WSW,247,9.0,16.0,82,0.01,,---,0.01,5.00,VWS V14.01,2013-03-15 02:09:00,
2013-03-14 19:14:00,48.7,43.5,30.08,SW,218,7.0,16.0,82,0.01,,---,0.01,0.00,VWS V14.01,2013-03-15 02:14:00,
2013-03-14 19:19:00,48.6,43.4,30.08,WSW,238,10.0,16.0,82,0.01,,---,0.01,0.00,VWS V14.01,2013-03-15 02:19:00,
2013-03-14 19:24:00,48.6,43.4,30.09,SW,223,14.0,16.0,82,0.01,,---,0.01,0.00,VWS V14.01,2013-03-15 02:24:00,
2013-03-14 19:29:00,48.5,43.3,30.09,SW,235,11.0,12.0,82,0.01,,---,0.01,0.00,VWS V14.01,2013-03-15 02:29:00,
2013-03-14 19:30:00,48.5,43.3,30.09,WSW,249,10.0,18.0,82,0.01,,---,0.01,0.00,VWS V14.01,2013-03-15 02:30:00,
2013-03-14 19:34:00,48.5,43.6,30.09,WSW,243,5.0,13.0,83,0.01,,---,0.01,0.00,VWS V14.01,2013-03-15 02:34:00,
2013-03-14 19:39:00,48.5,43.6,30.09,SW,232,7.0,13.0,83,0.01,,---,0.01,0.00,VWS V14.01,2013-03-15 02:39:00,
2013-03-14 19:44:00,48.5,43.6,30.09,SW,215,10.0,13.0,83,0.01,,---,0.01,0.00,VWS V14.01,2013-03-15 02:44:00,
2013-03-14 19:49:00,48.5,43.6,30.09,SSW,209,9.0,13.0,83,0.01,,---,0.01,0.00,VWS V14.01,2013-03-15 02:49:00,
2013-03-14 19:54:00,48.5,43.6,30.09,SSW,203,7.0,13.0,83,0.01,,---,0.01,0.00,VWS V14.01,2013-03-15 02:54:00,
2013-03-14 19:59:00,48.5,43.6,30.09,SSW,207,7.0,12.0,83,0.00,,---,0.01,0.00,VWS V14.01,2013-03-15 02:59:00,
2013-03-14 20:00:00,48.5,43.6,30.09,SSW,212,11.0,13.0,83,0.01,,---,0.01,0.00,VWS V14.01,2013-03-15 03:00:00,
2013-03-14 20:04:00,48.5,43.6,30.09,SW,219,8.0,13.0,83,0.00,,---,0.01,0.00,VWS V14.01,2013-03-15 03:04:00,
2013-03-14 20:09:00,48.5,43.6,30.09,SW,232,4.0,15.0,83,0.00,,---,0.01,0.00,VWS V14.01,2013-03-15 03:09:00,
2013-03-14 20:14:00,48.5,43.6,30.09,SSW,210,7.0,15.0,83,0.00,,---,0.01,0.00,VWS V14.01,2013-03-15 03:14:00,
2013-03-14 20:19:00,48.4,43.5,30.09,SW,231,7.0,15.0,83,0.00,,---,0.01,0.00,VWS V14.01,2013-03-15 03:19:00,
2013-03-14 20:24:00,48.4,43.5,30.09,SW,230,6.0,15.0,83,0.00,,---,0.01,0.00,VWS V14.01,2013-03-15 03:24:00,
2013-03-14 20:29:00,48.4,43.5,30.09,SW,220,6.0,8.0,83,0.00,,---,0.01,0.00,VWS V14.01,2013-03-15 03:29:00,
2013-03-14 20:30:00,48.4,43.5,30.09,SW,227,5.0,15.0,83,0.00,,---,0.01,0.00,VWS V14.01,2013-03-15 03:30:00,
2013-03-14 20:34:00,48.3,43.4,30.09,SW,216,7.0,10.0,83,0.00,,---,0.01,0.00,VWS V14.01,2013-03-15 03:34:00,
2013-03-14 20:39:00,48.2,43.6,30.09,SSW,210,2.0,10.0,84,0.00,,---,0.01,0.00,VWS V14.01,2013-03-15 03:39:00,
2013-03-14 20:44:00,48.2,43.6,30.09,SW,233,3.0,10.0,84,0.00,,---,0.01,0.00,VWS V14.01,2013-03-15 03:44:00,
2013-03-14 20:49:00,48.2,43.6,30.09,SSW,209,6.0,10.0,84,0.00,,---,0.01,0.00,VWS V14.01,2013-03-15 03:49:00,
2013-03-14 20:54:00,48.1,43.5,30.10,SSW,197,6.0,11.0,84,0.00,,---,0.01,0.00,VWS V14.01,2013-03-15 03:54:00,
2013-03-14 20:59:00,48.1,43.5,30.10,SSW,197,7.0,11.0,84,0.00,,---,0.01,0.00,VWS V14.01,2013-03-15 03:59:00,
2013-03-14 21:00:00,48.1,43.5,30.10,SSW,208,5.0,11.0,84,0.00,,---,0.01,0.00,VWS V14.01,2013-03-15 04:00:00,
2013-03-14 21:01:00,48.1,43.5,30.10,SSW,197,12.0,12.0,84,0.00,,---,0.01,0.00,VWS V14.01,2013-03-15 04:01:00,
2013-03-14 21:06:00,48.2,43.6,30.10,SSW,209,5.0,13.0,84,0.00,,---,0.01,0.00,VWS V14.01,2013-03-15 04:06:00,
2013-03-14 21:11:00,48.1,43.5,30.10,SSW,200,6.0,13.0,84,0.00,,---,0.01,0.00,VWS V14.01,2013-03-15 04:11:00,
2013-03-14 21:16:00,48.1,43.5,30.11,South,185,11.0,13.0,84,0.00,,---,0.01,0.00,VWS V14.01,2013-03-15 04:16:00,
2013-03-14 21:21:00,48.1,43.8,30.11,SW,215,2.0,13.0,85,0.00,,---,0.01,0.00,VWS V14.01,2013-03-15 04:21:00,
2013-03-14 21:26:00,48.1,43.8,30.11,SSW,200,7.0,13.0,85,0.00,,---,0.01,0.00,VWS V14.01,2013-03-15 04:26:00,
2013-03-14 21:30:00,48.1,43.8,30.11,SSW,194,3.0,13.0,85,0.00,,---,0.01,0.00,VWS V14.01,2013-03-15 04:30:00,
2013-03-14 21:31:00,48.1,43.8,30.11,SSW,206,6.0,11.0,85,0.00,,---,0.01,0.00,VWS V14.01,2013-03-15 04:31:00,
2013-03-14 21:36:00,48.1,44.1,30.11,SSW,204,7.0,11.0,86,0.00,,---,0.01,0.00,VWS V14.01,2013-03-15 04:36:00,
2013-03-14 21:41:00,48.0,44.0,30.11,SSW,193,10.0,14.0,86,0.00,,---,0.01,0.00,VWS V14.01,2013-03-15 04:41:00,
2013-03-14 21:46:00,47.9,43.9,30.11,SSW,199,6.0,14.0,86,0.00,,---,0.01,0.00,VWS V14.01,2013-03-15 04:46:00,
2013-03-14 21:51:00,47.8,43.8,30.11,SSW,198,0.0,14.0,86,0.00,,---,0.01,0.00,VWS V14.01,2013-03-15 04:51:00,
2013-03-14 21:56:00,47.8,44.1,30.12,SSW,200,3.0,14.0,87,0.00,,---,0.01,0.00,VWS V14.01,2013-03-15 04:56:00,
2013-03-14 22:00:00,47.8,44.1,30.12,SSW,200,3.0,14.0,87,0.00,,---,0.01,0.00,VWS V14.01,2013-03-15 05:00:00,
2013-03-14 22:01:00,47.8,44.1,30.12,SSW,206,5.0,9.0,87,0.00,,---,0.01,0.00,VWS V14.01,2013-03-15 05:01:00,
2013-03-14 22:06:00,47.7,44.0,30.12,SSW,202,5.0,9.0,87,0.00,,---,0.01,0.00,VWS V14.01,2013-03-15 05:06:00,
2013-03-14 22:11:00,47.7,44.0,30.12,SSW,197,8.0,9.0,87,0.00,,---,0.01,0.00,VWS V14.01,2013-03-15 05:11:00,
2013-03-14 22:16:00,47.7,44.0,30.12,SSW,199,6.0,9.0,87,0.00,,---,0.01,0.00,VWS V14.01,2013-03-15 05:16:00,
2013-03-14 22:21:00,47.7,44.3,30.13,SSW,196,5.0,9.0,88,0.01,,---,0.02,0.00,VWS V14.01,2013-03-15 05:21:00,
2013-03-14 22:26:00,47.7,44.3,30.13,SSW,201,6.0,9.0,88,0.01,,---,0.02,0.00,VWS V14.01,2013-03-15 05:26:00,
2013-03-14 22:30:00,47.7,44.3,30.13,SSW,200,4.0,9.0,88,0.01,,---,0.02,0.00,VWS V14.01,2013-03-15 05:30:00,
2013-03-14 22:31:00,47.7,44.3,30.13,SW,229,5.0,10.0,88,0.01,,---,0.02,0.00,VWS V14.01,2013-03-15 05:31:00,
2013-03-14 22:36:00,47.7,44.3,30.13,SSW,202,5.0,14.0,88,0.01,,---,0.02,0.00,VWS V14.01,2013-03-15 05:36:00,
2013-03-14 22:41:00,47.7,44.3,30.13,SSW,208,4.0,15.0,88,0.01,,---,0.02,0.00,VWS V14.01,2013-03-15 05:41:00,
2013-03-14 22:46:00,47.7,44.3,30.14,SW,220,3.0,15.0,88,0.01,,---,0.02,0.00,VWS V14.01,2013-03-15 05:46:00,
2013-03-14 22:51:00,47.7,44.3,30.14,SSW,209,8.0,15.0,88,0.01,,---,0.02,0.00,VWS V14.01,2013-03-15 05:51:00,
2013-03-14 22:56:00,47.7,44.3,30.14,SW,217,10.0,15.0,88,0.01,,---,0.02,0.00,VWS V14.01,2013-03-15 05:56:00,
2013-03-14 23:00:00,47.7,44.3,30.14,SSW,198,4.0,15.0,88,0.01,,---,0.02,0.00,VWS V14.01,2013-03-15 06:00:00,
2013-03-14 23:01:00,47.7,44.3,30.14,SSW,200,4.0,10.0,88,0.01,,---,0.02,0.00,VWS V14.01,2013-03-15 06:01:00,
2013-03-14 23:06:00,47.6,44.2,30.14,SW,225,6.0,12.0,88,0.01,,---,0.02,0.00,VWS V14.01,2013-03-15 06:06:00,
2013-03-14 23:10:00,47.7,44.6,30.14,SW,228,8.0,13.0,89,0.01,,---,0.02,0.00,VWS V14.01,2013-03-15 06:10:00,
2013-03-14 23:15:00,47.7,44.6,30.14,SSW,204,8.0,13.0,89,0.01,,---,0.02,0.00,VWS V14.01,2013-03-15 06:15:00,
2013-03-14 23:20:00,47.6,44.5,30.14,SSW,204,8.0,13.0,89,0.01,,---,0.02,0.00,VWS V14.01,2013-03-15 06:20:00,
2013-03-14 23:25:00,47.6,44.5,30.14,SW,223,4.0,13.0,89,0.01,,---,0.02,0.00,VWS V14.01,2013-03-15 06:25:00,
2013-03-14 23:30:00,47.7,44.6,30.14,SW,216,4.0,11.0,89,0.00,,---,0.02,0.00,VWS V14.01,2013-03-15 06:30:00,
2013-03-14 23:35:00,47.7,44.6,30.14,SW,214,11.0,11.0,89,0.00,,---,0.02,0.00,VWS V14.01,2013-03-15 06:35:00,
2013-03-14 23:40:00,47.7,44.6,30.14,SW,234,7.0,15.0,89,0.00,,---,0.02,0.00,VWS V14.01,2013-03-15 06:40:00,
2013-03-14 23:45:00,47.7,44.6,30.14,SW,216,7.0,18.0,89,0.00,,---,0.02,0.00,VWS V14.01,2013-03-15 06:45:00,
2013-03-14 23:50:00,47.7,44.6,30.14,SSW,204,8.0,18.0,89,0.00,,---,0.02,0.00,VWS V14.01,2013-03-15 06:50:00,
2013-03-14 23:55:00,47.7,44.6,30.14,SW,216,6.0,18.0,89,0.00,,---,0.02,0.00,VWS V14.01,2013-03-15 06:55:00,